Track FLOCK 1C 3 now! 10-day predictions FLOCK 1C 3 is classified as:
1 40041U 14033AH 21026.09004035 .00000905 00000-0 99080-4 0 9996 2 40041 97.9577 322.5448 0011478 273.8077 86.1828 14.90287819358815